Location: Mermaid+Beach
(28.0410°S, 153.4380°E)
Time: 19:21:02
(UTC+10:00)

ISS - Visible Passes

Search period start: 21 February 2018 00:00
Search period end: 03 March 2018 00:00
Orbit: 402 x 407 km, 51.6° (Epoch: 21 February)

Date Brightness Start Highest point End Pass type
(mag) Time Alt. Az. Time Alt. Az. Time Alt. Az.
21 Feb -3.3 03:52:10 60° E 03:52:10 60° E 03:55:05 10° NE visible
21 Feb -3.7 18:46:51 10° NNW 18:50:04 55° NE 18:53:20 10° SE visible
21 Feb -0.4 20:25:45 10° SW 20:26:47 11° SW 20:27:49 10° SSW visible
22 Feb -1.4 04:37:36 11° NNW 04:37:36 11° NNW 04:37:48 10° NNW visible
22 Feb -1.1 19:31:48 10° W 19:34:21 20° SW 19:36:56 10° S visible
